DECAYED

JIELONG 3 R/B, 67753 (Decayed)

Orbit data source: Space-Track

JIELONG 3 R/B, 67753 was space debris in LEO originally from a launch on Thu, 12 Feb 2026 UTC launched from the South China Sea Launch Area (SCSLA). Debris objects in space refer to the collection of defunct objects orbiting the Earth. Examples of debris include non-operational satellites, rocket bodies, and fragments generated from explosions, collisions, or faulty payload assembly.

Not visible in the next 10 days
Identifier
67753, 2026-027H
Orbit
Decayed
Country
Flag of CNCN / PRC
Related business
Manufacturer
Changzheng H.
Mission
Decayed spacecraft
Bus & Motor
Unknown
Mass
500 kg wet, 500 kg dry
Launch date (UTC)
2026-02-12 (4 months ago)
Launch vehicle
Unknown
Launch site
South China Sea Launch Area (SCSLA)
Object type
Payload
Rocket body
Debris
Shape & HBR
Cyl, 8.0 m
Radar Cross Section
3.456 m², Large (>1 m²)

Expand to show TLE details & history
Last TLE update: 2 months ago

TLE from 2 months ago
0 JIELONG 3 R/B
1 67753U 26027H   26089.64278150  .14205116  23809-5  15616-3 0  9992
2 67753  97.4850 223.0801 0024595 183.4156 176.6984 16.48517197  7324
Epoch: 2026-03-30T15:25Z
TLE epoch observation values (Epoch: 2026-03-30T15:25:36.321Z)
Latitude
-0.00003°
Longitude
163.64738°
Altitude
162.52 km
Speed
7.799 km/s
True Right ascension
14h 52m 19s
True Declination
0° 00' 00"
Sunlit
Object was in full shadow at epoch
Visualization orbit readout
Latitude
Unknown
Longitude
Unknown
Altitude
Unknown
Speed
Unknown
Apparent Right ascension
Unknown
Apparent Declination
Unknown
Sunlit
N/A
Visualization observer readout
Local Sidereal Time
12:59:07
Azimuth
Unknown
Elevation
Unknown
Doppler factor
Unknown
Orbital elements
Apogee altitude
156.075 km
Perigee altitude
124.012 km
Semi-major axis
6,518.181 km
Eccentricity
0.00246
Inclination
97.485°
RAAN
223.0801°
Arg. of periapsis
183.4156°
True anomaly
176.71458°
Mean anomaly
176.6984°
Eccentric anomaly
176.7065°
Mean motion
4.12433 °/min
Orbital period
87.29 mins
BSTAR
0.00015616
Loading maneuver chart data...
Computing Atmospheric mass density...
Loading historical data...
Loading historical data...
Loading historical data...
Loading historical data...
Loading historical data...
Loading historical data...
Loading historical data...

Documentation

Showing up to 5 results
|